George, South Africa

7:01 AM SAST on September 27, 2016 (GMT +0200)
George

Weather History for FAGG - October, 2010

Change the Weather History Date:

Thursday, October 7, 2010

  Actual Average Record
Temperature  
Mean Temperature 66 °F -  
Max Temperature 74 °F 67 °F 96 °F (2006)
Min Temperature 57 °F 49 °F 42 °F (2007)
Growing Degree Days 16 (Base 50)    
Moisture  
Dew Point 54 °F    
Average Humidity 61    
Maximum Humidity 88    
Minimum Humidity 25    
Precipitation  
Precipitation 0.00 in - - ()
Sea Level Pressure  
Sea Level Pressure 29.81 in    
Wind  
Wind Speed 6 mph ()    
Max Wind Speed 14 mph    
Max Gust Speed -    
Visibility 13.0 miles    
Events      
Averages and records for this station are not official NWS values.
T = Trace of Precipitation, MM = Missing Value Source: Averaged Metar Reports

Daily Weather History Graph

Daily Weather History Graph

Search for Another Location

Airport or City:

Trip Planner

Search our weather history database for the weather conditions in past years. The results will help you decide how hot, cold, wet, or windy it might be!

Date:

Astronomy

Oct. 07, 2010 Rise Set
Actual Time 5:59 AM SAST 6:37 PM SAST
Civil Twilight 5:34 AM SAST 7:02 PM SAST
Nautical Twilight 5:04 AM SAST 7:32 PM SAST
Astronomical Twilight 4:34 AM SAST 8:03 PM SAST
Moon 5:19 AM SAST (10/7) 6:29 PM SAST (10/7)
Length of Visible Light 13h 28m
Length of Day
12h 37m
Waning Crescent, 0% of the Moon is Illuminated
Oct 7
Waning Crescent
Oct 7
New
Oct 14
First Quarter
Oct 23
Full
Oct 30
Last Quarter

Hourly Weather History & Observations

Time (SAST) Temp. Dew Point Humidity Pressure Visibility Wind Dir Wind Speed Gust Speed Precip Events Conditions
12:00 AM 71.6 °F 57.2 °F 60% 29.71 in - SE 8.1 mph - N/A   Clear
1:00 AM 73.4 °F 53.6 °F 50% 29.71 in - Variable 2.3 mph - N/A   Clear
2:00 AM 71 °F 56 °F 49% 29.68 in 19 mi WNW 6.9 mph - -  
2:00 AM 69.8 °F 57.2 °F 64% 29.68 in - West 5.8 mph - N/A   Clear
3:00 AM 78.8 °F 50.0 °F 36% 29.65 in - Variable 4.6 mph - N/A   Clear
4:00 AM 78.8 °F 48.2 °F 34% 29.65 in - SSW 6.9 mph - N/A   Clear
5:00 AM 74 °F 52 °F 36% 29.68 in 19 mi WNW 6.9 mph - -   Clear
5:00 AM 75.2 °F 51.8 °F 44% 29.68 in - WNW 6.9 mph - N/A   Clear
6:00 AM 84.2 °F 44.6 °F 25% 29.68 in - NNW 13.8 mph - N/A   Clear
7:00 AM 73.4 °F 51.8 °F 47% 29.74 in - WSW 12.7 mph - N/A   Clear
8:00 AM 73 °F 55 °F 42% 29.78 in 12 mi NW 4.6 mph - -   Scattered Clouds
8:00 AM 73.4 °F 53.6 °F 50% 29.77 in - Variable 2.3 mph - N/A   Clear
9:00 AM 73.4 °F 53.6 °F 50% 29.77 in - South 4.6 mph - N/A   Clear
10:00 AM 68.0 °F 57.2 °F 68% 29.83 in - South 8.1 mph - N/A   Clear
11:00 AM 68 °F 57 °F 58% 29.85 in 12 mi 3.5 mph - -   Scattered Clouds
11:00 AM 68.0 °F 57.2 °F 68% 29.83 in - ESE 3.5 mph - N/A   Clear
12:00 PM 68.0 °F 55.4 °F 64% 29.86 in - SE 6.9 mph - N/A   Clear
1:00 PM 68.0 °F 55.4 °F 64% 29.83 in - ESE 9.2 mph - N/A   Clear
2:00 PM 66 °F 55 °F 60% 29.84 in 12 mi SSE 10.4 mph - -   Clear
2:00 PM 66.2 °F 55.4 °F 68% 29.83 in - SSE 11.5 mph - N/A   Clear
3:00 PM 66.2 °F 55.4 °F 68% 29.83 in - East 8.1 mph - N/A   Clear
4:00 PM 66.2 °F 55.4 °F 68% 29.86 in - SE 9.2 mph - N/A   Clear
5:00 PM 63 °F 55 °F 69% 29.86 in 12 mi ENE 6.9 mph - -   Clear
5:00 PM 62.6 °F 55.4 °F 77% 29.86 in - ENE 6.9 mph - N/A   Clear
6:00 PM 62.6 °F 55.4 °F 77% 29.86 in - ENE 6.9 mph - N/A   Clear
7:00 PM 60.8 °F 55.4 °F 82% 29.92 in - Variable 2.3 mph - N/A   Clear
8:00 PM 59 °F 55 °F 84% 29.95 in 12 mi NNW 4.6 mph - -   Clear
8:00 PM 59.0 °F 55.4 °F 88% 29.95 in - NNW 4.6 mph - N/A   Clear
9:00 PM 59.0 °F 53.6 °F 82% 29.98 in - NE 5.8 mph - N/A   Clear
10:00 PM 57.2 °F 51.8 °F 82% 29.98 in 6.2 mi North 3.5 mph - N/A   Partly Cloudy
11:00 PM 57.2 °F 51.8 °F 82% 29.98 in - SW 4.6 mph - N/A   Clear